www.pogodaiklimat.ru

Погода и климат >> Архив погоды >> Россия >> Камчатский край >> Апука


АРХИВ ПОГОДЫ в Апуке

Время (UTC), дата Ветер
(напр.,м/с)
 
Видим.   Явления Облачность Т
(С)
Тd
(С)
f
(%)
Тe
(С)
Тes
(С)
Комфортность P
(гПа)
Po
(гПа)
Тmin
(С)
Tmax
(С)
R
(мм)
R24
(мм)
S
(см)
09 12.02 СВ 3 20 км 8/8 600 м
[Sc]
-17.4 -20.8 75 -24 -24 1005.9 1005.3 -13.7
12 12.02 СВ 4 20 км 10/10 600 м
[Sc]
-17.9 -21.3 75 -26 -26 1007.3 1006.7
15 12.02 В 3 20 км 10/10 600 м
[Sc]
-18.6 -22.7 70 -26 -26 1009.4 1008.8
18 12.02 СВ 5 20 км 10/10 600 м
[Sc]
-20.7 -24.7 70 -31 -31 опасность
обморожения
1011.6 1011.0
21 12.02 СЗ 4 н/о н/о -20.7 -26.6 59 -30 -30 1014.8 1013.8 -22.5
00 13.02 С 4 50 км 3/0
[Ci fib]
-21.8 -28.4 55 -31 -30 опасность
обморожения
1017.8 1017.2
03 13.02 Ю 3 50 км ясно -22.4 -30.0 50 -30 -30 1021.1 1020.5
06 13.02 С 8 50 км ясно -22.8 -29.4 55 -36 -36 опасность
обморожения
1024.0 1023.4
09 13.02 СВ 4 50 км ясно -22.2 -28.9 54 -32 -32 опасность
обморожения
1026.7 1026.1 -20.6
12 13.02 В 7 50 км ясно -27.0 -32.5 59 -41 -41 опасность
обморожения
1026.9 1026.3
15 13.02 В 11-13
{13}
50 км ясно -25.8 -30.5 65 -42 -42 опасность
обморожения
1024.9 1024.3
18 13.02 В 15-17
{19}
50 км 9/3 600 м
[Sc Ci fib]
-24.9 -28.9 69 -43 -43 опасность
обморожения
1021.8 1021.2
21 13.02 В 16-19
{21}
20 км позёмок 10/10 600 м
[Sc]
-23.4 -26.6 75 -41 -41 опасность
обморожения
1017.9 1017.3 -27.4 62
00 14.02 В 17-22
{23}
10 км сильный позёмок 10/10 600 м
[Sc]
-19.8 -23.1 75 -36 -36 опасность
обморожения
1011.1 1010.5
03 14.02 В 22 1000 м метель ?/? -17.2 -20.6 75 -34 -34 опасность
обморожения
1008.8 1008.2
06 14.02 СВ 22-31
{31}
200 м метель ?/? -12.2 -19.5 54 -27 -27 993.0 992.4
09 14.02 СВ 22-26
{29}
200 м сильная метель ?/? -9.1 -10.4 90 -23 -23 986.9 986.3 -9.1 8
12 14.02 В 20-24
{29}
200 м сильная метель ?/? -8.1 -9.1 92 -22 -22 984.4 983.8
15 14.02 В 18-21
{25}
1000 м метель ?/? -7.8 -9.2 90 -21 -21 983.6 983.0
18 14.02 В 17-21
{23}
1000 м метель ?/? -7.5 -9.2 88 -20 -20 982.1 981.5
21 14.02 СВ 15-19
{22}
4000 м 10/9 600 м
[Sc]
-7.2 -8.9 88 -19 -19 981.5 980.9 -9.1 9 65
00 15.02 СВ 12-20
{22}
4000 м позёмок 10/10 600 м
[Sc]
-6.1 -7.2 92 -17 -17 978.4 977.8
03 15.02 СВ 17-20
{23}
4000 м позёмок 10/10 600 м
[Sc]
-4.6 -5.5 93 -16 -16 975.4 974.8
06 15.02 СВ 14-17
{23}
4000 м позёмок 10/10 600 м
[Sc]
-2.4 -3.4 93 -13 -13 974.4 973.8
09 15.02 ЮВ 11-13
{18}
20 км {метель} 10/10 600 м
[Sc]
0.0 -0.9 94 -9 -9 976.0 975.4 +0.1
12 15.02 В 9
{14}
20 км {метель} 10/10 600 м
[Sc]
-0.7 -1.3 96 -9 -9 977.7 977.1
18 15.02 СВ 8 20 км 10/10 600 м
[Sc]
-1.8 -2.4 96 -10 -10 975.2 974.6
21 15.02 В 8
{12}
20 км 10/10 600 м
[Sc]
-1.7 -3.3 89 -10 -10 976.9 976.3 -2.1 65
00 16.02 В 3 20 км 10/10 600 м
[Sc]
-1.2 -6.7 66 -6 -6 970.6 970.0
03 16.02 СВ 3 20 км 10/10 600 м
[Sc]
-1.2 -5.5 73 -6 -6 968.9 968.3
06 16.02 В 1 4000 м слаб. ливневой снег 10/10 600 м
[Cb cap]
-2.6 -3.9 91 -5 -5 969.1 968.5
09 16.02 С 4 20 км {ливн. осадки} 10/10 600 м
[Sc]
-4.1 -5.1 93 -11 -11 970.1 969.5 -0.3 1
12 16.02 З 3 20 км {ливн. осадки} 10/10 600 м
[Sc]
-4.0 -5.7 88 -9 -9 972.6 972.0
15 16.02 З 7 20 км 10/10 600 м
[Sc]
-3.7 -6.9 78 -12 -12 976.2 975.6
18 16.02 З 6 н/о н/о -3.6 -7.8 73 -11 -11 980.7 979.8
21 16.02 ЮЗ 10-13
{13}
н/о н/о -5.0 -7.4 83 -15 -15 985.1 984.1 -5.1
00 17.02 ЮЗ 9-12
{14}
20 км 9/9 600 м
[Sc]
-5.1 -9.5 71 -14 -14 988.2 987.6
03 17.02 ЮЗ 4
{12}
50 км 9/6 600 м
[Sc Ci fib]
-5.2 -10.6 66 -11 -11 989.4 988.8
06 17.02 С 4 50 км 9/0
[Ci fib]
-9.1 -13.0 73 -16 -16 990.8 990.2
09 17.02 В 4 50 км ясно -13.4 -16.1 80 -21 -21 992.0 991.4 -4.6
12 17.02 СВ 8 50 км ясно -8.3 -11.5 78 -18 -18 992.2 991.6
15 17.02 В 13-16
{16}
20 км 8/8 600 м
[Sc]
-8.2 -10.1 86 -20 -20 991.0 990.4
18 17.02 В 13-16
{18}
20 км 10/10 600 м
[Sc]
-8.3 -10.6 83 -20 -20 989.8 989.2
21 17.02 В 5
{15}
4000 м слаб. ливневой снег 10/10 600 м
[Cb cap]
-8.1 -9.9 87 -16 -16 990.8 990.2 -14.3 0.0 65
00 18.02 В 3 50 км {ливн. осадки} 9/9 600 м
[Sc]
-6.9 -9.0 85 -13 -12 992.4 991.8
03 18.02 СЗ 1 20 км 10/10 600 м
[Sc]
-5.0 -7.8 81 -7 -7 993.5 992.9
06 18.02 СВ 4 10 км слаб. ливневой снег 10/10 600 м
[Cb cap]
-6.8 -8.8 86 -13 -13 994.9 994.3
09 18.02 В 5 10 км слаб. ливневой снег 10/10 600 м
[Cb cap]
-6.6 -7.8 91 -14 -14 996.9 996.3 -4.7 3
12 18.02 СВ 2 20 км {ливн. осадки} 10/10 600 м
[Sc]
-10.4 -11.7 90 -15 -15 998.1 997.5
15 18.02 В 5 20 км 10/10 600 м
[Sc]
-7.0 -8.3 90 -15 -15 999.5 998.9
18 18.02 В 10-13
{13}
20 км 10/6 600 м
[Sc Ci fib]
-6.1 -9.1 79 -16 -16 999.3 998.3
21 18.02 З 7
{13}
50 км 9/8 600 м
[Sc Ci fib]
-4.2 -6.7 83 -12 -12 1003.1 1002.5 -12.2 0.2 65
00 19.02 ЮЗ 6 50 км 8/8 600 м
[Sc]
-4.3 -8.5 72 -12 -12 1006.0 1005.4
03 19.02 З 3 50 км 5/5 600 м
[Sc]
-5.5 -10.5 68 -11 -10 1006.2 1005.6
06 19.02 С 2 50 км 3/3 600 м
[Sc]
-8.3 -12.5 72 -13 -13 1005.7 1005.1

 

Местоположение метеостанции Апука (Камчатский край, Россия): широта 60.43 долгота 169.60 высота над уровнем моря 5 м.

В архиве по умолчанию представлена погода в Апуке за последнюю неделю. Архивные данные за месяц целиком и за предыдущие месяцы, начиная с января 2011 года, Вы можете получить, выбрав интересующий диапазон дат из раскрывающегося списка и нажав кнопку "Ввод!".


*Определитесь, кто Вы:
робот инопланетянин человек

Внимание! Время в таблицах - всемирное. Для получения местного времени необходимо прибавить поправку, которая равна 12 ч.

Смотрите также архив погоды в соседних городах и на ближайших метеорологических станциях:

Погода в Тиличиках (Камчатский край, Россия) (198 км)
Погода в Каменском (Камчатский край, Россия) (291 км)
Погода в Слаутном (Камчатский край, Россия) (322 км)
Погода в Чемурнауте (Камчатский край, Россия) (362 км)
Погода в Оссоре (Камчатский край, Россия) (392 км)
Погода в Марково (Чукотка, Россия) (474 км)
Погода на Мысе Озерном (Камчатский край, Россия) (479 км)
Погода в Верхне-Пенжино (Камчатский край, Россия) (505 км)
Погода в Танюрере (Чукотка, Россия) (551 км)
Погода в Палане (Камчатский край, Россия) (563 км)

Пояснения к столбцам:

Ветер - указаны скорость ветра в м/с - средняя за 10 мин, порывы в срок и между сроками (в фигурных скобках) и направление, откуда дует ветер: С - северный, СВ - северо-восточный, В - восточный, ЮВ - юго-восточный, Ю - южный, ЮЗ - юго-западный, З - западный, СЗ - северо-западный.
Видимость - горизонтальная дальность видимости в метрах или километрах. При видимости от 1 до 10 км при отсутствии осадков обычно наблюдается дымка, при ухудшении видимости до 1 км и менее - туман. В сухую погоду видимость может ухудшаться дымом, пылью или мглою.
Явления - указаны атмосферные явления, наблюдавшиеся в срок или в последний час перед сроком; фигурными скобками обозначены явления, наблюдавшиеся между сроками (за 1-3 часа до срока); квадратными скобками обозначены град или гололедные отложения с указанием их диаметра в мм.
Облачность - указаны через наклонную черту общая и нижняя облачность в баллах и высота нижней границы облаков в метрах; квадратными скобками обозначены формы облаков: Ci - перистые, Cs - перисто-слоистые, Cc - перисто-кучевые, Ac - высококучевые, As - высокослоистые, Sc - слоисто-кучевые, Ns - слоисто-дождевые, Cu - кучевые, Cb - кучево-дождевые. Подробнее классификацию облаков см. в Атласе облаков (PDF).
T - Температура воздуха - температура, измеренная на высоте 2 м над землей.
Td - Температура точки росы - температура, при понижении до которой содержащийся в воздухе водяной пар достигнет насыщения.
f - Относительная влажность воздуха - влажноcть воздуха, измеренная на высоте 2 м над землей.
Te - Эффективная температура - температура, которую ощущает одетый по сезону человек в тени. Характеристика душности погоды. При расчете учитывается влияние влажности воздуха и скорости ветра на теплоощущения человека.
Tes - Эффективная температура на солнце - температура, которую ощущает человек, с поправкой на солнечный нагрев. Характеристика знойности погоды. Зависит от высоты солнца над горизонтом, облачности и скорости ветра. Ночью, в пасмурную погоду, а также при ветре 12 м/с и более поправка равна нулю.
P - Атмосферное давление - приведенное к уровню моря атмосферное давление.
Po - Атмосферное давление - измеренное на уровне метеостанции атмосферное давление.
Tmin - Минимальная температура - минимум температуры воздуха на высоте 2 м над землей.
Tmax - Максимальная температура - максимум температуры воздуха на высоте 2 м над землей.
R - Количество осадков - Количество выпавших осадков за период времени, мм. При наведении курсора мыши на число - период времени, за который выпало указанное количество осадков.
R24 - Количество осадков - Количество выпавших осадков за 24 часа, мм.
S - Снежный покров - Высота снежного покрова, см. При наведении курсора мыши на число - состояние снежного покрова и степень покрытия местности в баллах.